Location: Caltech
(34.1382°N, 118.1253°W)
Time: 05:22:40
(UTC-07:00)

PANSAT - Visible Passes

Search period start: 23 October 2014 00:00
Search period end: 02 November 2014 00:00
Orbit: 490 x 496 km, 28.5° (Epoch: 21 October)

Date Brightness Start Highest point End Pass type
(mag) Time Alt. Az. Time Alt. Az. Time Alt. Az.
25 Oct 10.2 06:17:10 10° SSW 06:19:19 14° SSE 06:21:28 10° SE visible
26 Oct 10.1 05:51:30 10° SSW 05:53:47 15° SSE 05:56:04 10° ESE visible
27 Oct 9.9 05:26:54 14° S 05:28:14 16° SSE 05:30:38 10° ESE visible
28 Oct 10.0 05:03:05 16° SSE 05:03:05 16° SSE 05:05:10 10° ESE visible
28 Oct 9.0 06:38:54 10° WSW 06:42:21 32° S 06:45:47 10° ESE visible
29 Oct 10.6 04:39:10 12° SE 04:39:10 12° SE 04:39:42 10° ESE visible
29 Oct 8.9 06:13:34 11° WSW 06:16:47 32° S 06:20:14 10° ESE visible
30 Oct 8.8 05:49:36 23° SW 05:51:12 33° S 05:54:40 10° ESE visible
31 Oct 8.7 05:25:33 33° S 05:25:36 33° S 05:29:06 10° ESE visible
01 Nov 9.6 05:01:29 24° SE 05:01:29 24° SE 05:03:30 10° ESE visible
01 Nov 9.0 06:36:25 10° WSW 06:39:48 30° S 06:43:10 10° SE visible
